Time,TemperatureF,DewpointF,PressureIn,WindDirection,WindDirectionDegrees,WindSpeedMPH,WindSpeedGustMPH,Humidity,HourlyPrecipIn,Conditions,Clouds,dailyrainin,SolarRadiationWatts/m^2,SoftwareType,DateUTC
2013-05-05 00:00:00,60.1,42.9,29.81,SSE,165,0.0,0.0,53,0.00,,OVC041,0.00,0.00,VWS V14.01,2013-05-05 04:00:00,
2013-05-05 00:01:00,59.0,42.9,29.80,East,88,0.0,0.0,55,0.00,,CLR,0.00,0.00,VWS V14.01,2013-05-05 04:01:00,
2013-05-05 00:06:00,58.9,42.8,29.80,ESE,115,0.0,0.0,55,0.00,,CLR,0.00,0.00,VWS V14.01,2013-05-05 04:06:00,
2013-05-05 00:11:00,58.6,43.0,29.80,ESE,115,0.0,0.0,56,0.00,,CLR,0.00,0.00,VWS V14.01,2013-05-05 04:11:00,
2013-05-05 00:16:00,58.6,42.5,29.80,SE,134,1.0,0.0,55,0.00,,CLR,0.00,0.00,VWS V14.01,2013-05-05 04:16:00,
2013-05-05 00:21:00,58.6,42.5,29.80,SE,134,0.0,0.0,55,0.00,,CLR,0.00,0.00,VWS V14.01,2013-05-05 04:21:00,
2013-05-05 00:26:00,58.4,41.8,29.80,SE,134,0.0,0.0,54,0.00,,CLR,0.00,0.00,VWS V14.01,2013-05-05 04:26:00,
2013-05-05 00:30:00,59.3,43.2,29.80,North,355,0.0,0.0,55,0.00,,OVC041,0.00,0.00,VWS V14.01,2013-05-05 04:30:00,
2013-05-05 00:31:00,58.3,42.7,29.80,SE,134,0.0,0.0,56,0.00,,CLR,0.00,0.00,VWS V14.01,2013-05-05 04:31:00,
2013-05-05 00:36:00,58.0,42.4,29.80,SSE,155,0.0,0.0,56,0.00,,CLR,0.00,0.00,VWS V14.01,2013-05-05 04:36:00,
2013-05-05 00:41:00,58.0,41.9,29.80,SSE,155,0.0,0.0,55,0.00,,CLR,0.00,0.00,VWS V14.01,2013-05-05 04:41:00,
2013-05-05 00:46:00,58.0,41.9,29.80,SSE,155,0.0,0.0,55,0.00,,CLR,0.00,0.00,VWS V14.01,2013-05-05 04:46:00,
2013-05-05 00:51:00,57.8,41.8,29.81,SSE,155,0.0,0.0,55,0.00,,CLR,0.00,0.00,VWS V14.01,2013-05-05 04:51:00,
2013-05-05 00:56:00,57.6,42.0,29.81,ESE,114,0.0,0.0,56,0.00,,CLR,0.00,0.00,VWS V14.01,2013-05-05 04:56:00,
2013-05-05 01:00:00,58.9,42.8,29.80,ESE,115,0.0,0.0,55,0.00,,OVC041,0.00,0.00,VWS V14.01,2013-05-05 05:00:00,
2013-05-05 01:01:00,57.6,42.0,29.81,SE,126,0.0,0.0,56,0.00,,CLR,0.00,0.00,VWS V14.01,2013-05-05 05:01:00,
2013-05-05 01:06:00,57.5,41.9,29.81,SE,126,0.0,0.0,56,0.00,,CLR,0.00,0.00,VWS V14.01,2013-05-05 05:06:00,
2013-05-05 01:11:00,57.3,41.8,29.81,SE,126,0.0,0.0,56,0.00,,CLR,0.00,0.00,VWS V14.01,2013-05-05 05:11:00,
2013-05-05 01:16:00,57.2,42.6,29.81,SE,126,0.0,0.0,58,0.00,,CLR,0.00,0.00,VWS V14.01,2013-05-05 05:16:00,
2013-05-05 01:21:00,57.0,42.4,29.81,SE,126,0.0,0.0,58,0.00,,CLR,0.00,0.00,VWS V14.01,2013-05-05 05:21:00,
2013-05-05 01:26:00,56.9,41.4,29.81,SE,126,0.0,0.0,56,0.00,,CLR,0.00,0.00,VWS V14.01,2013-05-05 05:26:00,
2013-05-05 01:30:00,58.1,42.0,29.80,SSE,155,0.0,0.0,55,0.00,,OVC041,0.00,0.00,VWS V14.01,2013-05-05 05:30:00,
2013-05-05 01:31:00,56.7,41.7,29.81,SE,126,0.0,0.0,57,0.00,,CLR,0.00,0.00,VWS V14.01,2013-05-05 05:31:00,
2013-05-05 01:36:00,56.6,41.6,29.81,SE,126,0.0,0.0,57,0.00,,CLR,0.00,0.00,VWS V14.01,2013-05-05 05:36:00,
2013-05-05 01:41:00,56.6,41.6,29.81,SE,126,0.0,0.0,57,0.00,,CLR,0.00,0.00,VWS V14.01,2013-05-05 05:41:00,
2013-05-05 01:46:00,56.5,41.9,29.81,SE,126,0.0,0.0,58,0.00,,CLR,0.00,0.00,VWS V14.01,2013-05-05 05:46:00,
2013-05-05 01:51:00,56.3,42.6,29.80,SE,126,0.0,0.0,60,0.00,,CLR,0.00,0.00,VWS V14.01,2013-05-05 05:51:00,
2013-05-05 01:56:00,56.3,41.7,29.80,SE,126,0.0,0.0,58,0.00,,CLR,0.00,0.00,VWS V14.01,2013-05-05 05:56:00,
2013-05-05 02:00:00,57.3,41.8,29.81,SE,126,0.0,0.0,56,0.00,,OVC041,0.00,0.00,VWS V14.01,2013-05-05 06:00:00,
2013-05-05 02:01:00,56.2,41.6,29.80,SE,126,0.0,0.0,58,0.00,,CLR,0.00,0.00,VWS V14.01,2013-05-05 06:01:00,
2013-05-05 02:06:00,56.0,41.5,29.80,SE,126,0.0,0.0,58,0.00,,CLR,0.00,0.00,VWS V14.01,2013-05-05 06:06:00,
2013-05-05 02:11:00,56.0,41.5,29.80,SE,126,0.0,0.0,58,0.00,,CLR,0.00,0.00,VWS V14.01,2013-05-05 06:11:00,
2013-05-05 02:16:00,56.0,41.9,29.80,SE,126,0.0,0.0,59,0.00,,CLR,0.00,0.00,VWS V14.01,2013-05-05 06:16:00,
2013-05-05 02:21:00,55.9,41.8,29.79,SE,126,0.0,0.0,59,0.00,,CLR,0.00,0.00,VWS V14.01,2013-05-05 06:21:00,
2013-05-05 02:26:00,55.9,41.8,29.79,SE,126,0.0,0.0,59,0.00,,CLR,0.00,0.00,VWS V14.01,2013-05-05 06:26:00,
2013-05-05 02:30:00,56.6,41.6,29.81,SE,126,0.0,0.0,57,0.00,,OVC041,0.00,0.00,VWS V14.01,2013-05-05 06:30:00,
2013-05-05 02:31:00,55.7,41.6,29.79,SE,126,0.0,0.0,59,0.00,,CLR,0.00,0.00,VWS V14.01,2013-05-05 06:31:00,
2013-05-05 02:36:00,55.6,41.5,29.79,SE,126,0.0,0.0,59,0.00,,CLR,0.00,0.00,VWS V14.01,2013-05-05 06:36:00,
2013-05-05 02:41:00,55.6,42.0,29.79,SE,126,0.0,0.0,60,0.00,,CLR,0.00,0.00,VWS V14.01,2013-05-05 06:41:00,
2013-05-05 02:46:00,55.4,41.3,29.79,SE,126,0.0,0.0,59,0.00,,CLR,0.00,0.00,VWS V14.01,2013-05-05 06:46:00,
2013-05-05 02:51:00,55.4,41.3,29.78,SE,136,0.0,0.0,59,0.00,,CLR,0.00,0.00,VWS V14.01,2013-05-05 06:51:00,
2013-05-05 02:56:00,55.3,41.7,29.78,SE,136,0.0,0.0,60,0.00,,CLR,0.00,0.00,VWS V14.01,2013-05-05 06:56:00,
2013-05-05 03:00:00,56.0,41.5,29.80,SE,126,0.0,0.0,58,0.00,,OVC041,0.00,0.00,VWS V14.01,2013-05-05 07:00:00,
2013-05-05 03:01:00,55.3,41.7,29.78,SE,136,0.0,0.0,60,0.00,,CLR,0.00,0.00,VWS V14.01,2013-05-05 07:01:00,
2013-05-05 03:06:00,55.1,41.9,29.78,SE,136,0.0,0.0,61,0.00,,CLR,0.00,0.00,VWS V14.01,2013-05-05 07:06:00,
2013-05-05 03:11:00,55.1,41.5,29.78,SE,136,0.0,0.0,60,0.00,,CLR,0.00,0.00,VWS V14.01,2013-05-05 07:11:00,
2013-05-05 03:16:00,55.0,41.8,29.78,SE,136,0.0,0.0,61,0.00,,CLR,0.00,0.00,VWS V14.01,2013-05-05 07:16:00,
2013-05-05 03:21:00,54.8,41.2,29.78,SE,136,0.0,0.0,60,0.00,,CLR,0.00,0.00,VWS V14.01,2013-05-05 07:21:00,
2013-05-05 03:26:00,54.8,41.6,29.78,SE,136,0.0,0.0,61,0.00,,CLR,0.00,0.00,VWS V14.01,2013-05-05 07:26:00,
2013-05-05 03:30:00,55.4,41.3,29.79,SE,126,0.0,0.0,59,0.00,,OVC041,0.00,0.00,VWS V14.01,2013-05-05 07:30:00,
2013-05-05 03:31:00,54.7,41.5,29.78,SE,136,0.0,0.0,61,0.00,,CLR,0.00,0.00,VWS V14.01,2013-05-05 07:31:00,
2013-05-05 03:36:00,54.5,41.8,29.78,ENE,76,0.0,0.0,62,0.00,,CLR,0.00,0.00,VWS V14.01,2013-05-05 07:36:00,
2013-05-05 03:41:00,54.4,41.2,29.78,ENE,76,0.0,0.0,61,0.00,,CLR,0.00,0.00,VWS V14.01,2013-05-05 07:41:00,
2013-05-05 03:46:00,54.2,41.5,29.78,ENE,76,0.0,0.0,62,0.00,,CLR,0.00,0.00,VWS V14.01,2013-05-05 07:46:00,
2013-05-05 03:51:00,54.1,41.4,29.78,ENE,76,0.0,0.0,62,0.00,,CLR,0.00,0.00,VWS V14.01,2013-05-05 07:51:00,
2013-05-05 03:56:00,54.1,41.0,29.78,ENE,71,0.0,0.0,61,0.00,,CLR,0.00,0.00,VWS V14.01,2013-05-05 07:56:00,
2013-05-05 04:00:00,55.1,41.9,29.78,SE,136,0.0,0.0,61,0.00,,OVC041,0.00,0.00,VWS V14.01,2013-05-05 08:00:00,
2013-05-05 04:01:00,53.8,41.1,29.78,ENE,71,0.0,0.0,62,0.00,,CLR,0.00,0.00,VWS V14.01,2013-05-05 08:01:00,
2013-05-05 04:06:00,53.6,41.3,29.78,ENE,71,0.0,0.0,63,0.00,,CLR,0.00,0.00,VWS V14.01,2013-05-05 08:06:00,
2013-05-05 04:11:00,53.5,40.8,29.78,ENE,71,0.0,0.0,62,0.00,,CLR,0.00,0.00,VWS V14.01,2013-05-05 08:11:00,
2013-05-05 04:16:00,53.3,41.0,29.78,ENE,71,0.0,0.0,63,0.00,,CLR,0.00,0.00,VWS V14.01,2013-05-05 08:16:00,
2013-05-05 04:21:00,53.3,41.0,29.78,ENE,71,0.0,0.0,63,0.00,,CLR,0.00,0.00,VWS V14.01,2013-05-05 08:21:00,
2013-05-05 04:26:00,53.3,41.0,29.78,ENE,71,0.0,0.0,63,0.00,,CLR,0.00,0.00,VWS V14.01,2013-05-05 08:26:00,
2013-05-05 04:30:00,54.5,41.3,29.78,ENE,76,0.0,0.0,61,0.00,,OVC041,0.00,0.00,VWS V14.01,2013-05-05 08:30:00,
2013-05-05 04:31:00,53.2,41.0,29.78,ENE,71,0.0,0.0,63,0.00,,CLR,0.00,0.00,VWS V14.01,2013-05-05 08:31:00,
2013-05-05 04:36:00,53.1,40.8,29.78,ENE,71,0.0,0.0,63,0.00,,CLR,0.00,0.00,VWS V14.01,2013-05-05 08:36:00,
2013-05-05 04:41:00,53.1,40.8,29.78,ENE,71,0.0,0.0,63,0.00,,CLR,0.00,0.00,VWS V14.01,2013-05-05 08:41:00,
2013-05-05 04:46:00,52.9,40.7,29.78,ENE,71,0.0,0.0,63,0.00,,CLR,0.00,0.00,VWS V14.01,2013-05-05 08:46:00,
2013-05-05 04:51:00,52.9,41.1,29.77,ENE,71,0.0,0.0,64,0.00,,CLR,0.00,0.00,VWS V14.01,2013-05-05 08:51:00,
2013-05-05 04:56:00,52.9,41.1,29.77,ENE,71,0.0,0.0,64,0.00,,CLR,0.00,0.00,VWS V14.01,2013-05-05 08:56:00,
2013-05-05 05:00:00,53.6,41.3,29.78,ENE,71,0.0,0.0,63,0.00,,OVC041,0.00,0.00,VWS V14.01,2013-05-05 09:00:00,
2013-05-05 05:01:00,52.9,40.7,29.77,ENE,71,0.0,0.0,63,0.00,,CLR,0.00,0.00,VWS V14.01,2013-05-05 09:01:00,
2013-05-05 05:06:00,52.8,40.6,29.77,ESE,103,0.0,0.0,63,0.00,,CLR,0.00,0.00,VWS V14.01,2013-05-05 09:06:00,
2013-05-05 05:11:00,52.8,40.6,29.77,ESE,103,0.0,0.0,63,0.00,,CLR,0.00,0.00,VWS V14.01,2013-05-05 09:11:00,
2013-05-05 05:16:00,52.8,41.0,29.77,ESE,103,0.0,0.0,64,0.00,,CLR,0.00,0.00,VWS V14.01,2013-05-05 09:16:00,
2013-05-05 05:21:00,52.6,40.8,29.77,ESE,103,0.0,0.0,64,0.00,,CLR,0.00,0.00,VWS V14.01,2013-05-05 09:21:00,
2013-05-05 05:26:00,52.6,40.8,29.77,ESE,103,0.0,0.0,64,0.00,,CLR,0.00,0.00,VWS V14.01,2013-05-05 09:26:00,
2013-05-05 05:30:00,53.1,41.3,29.78,ENE,71,0.0,0.0,64,0.00,,OVC041,0.00,0.00,VWS V14.01,2013-05-05 09:30:00,
2013-05-05 05:31:00,52.5,40.7,29.77,ESE,103,0.0,0.0,64,0.00,,CLR,0.00,0.00,VWS V14.01,2013-05-05 09:31:00,
2013-05-05 05:36:00,52.5,41.1,29.77,ESE,103,0.0,0.0,65,0.00,,CLR,0.00,0.00,VWS V14.01,2013-05-05 09:36:00,
2013-05-05 05:41:00,52.3,40.9,29.77,ESE,103,0.0,0.0,65,0.00,,CLR,0.00,0.00,VWS V14.01,2013-05-05 09:41:00,
2013-05-05 05:46:00,52.2,40.8,29.77,ESE,103,0.0,0.0,65,0.00,,CLR,0.00,0.00,VWS V14.01,2013-05-05 09:46:00,
2013-05-05 05:51:00,52.0,40.6,29.77,ESE,103,0.0,0.0,65,0.00,,CLR,0.00,0.00,VWS V14.01,2013-05-05 09:51:00,
2013-05-05 05:56:00,52.0,41.0,29.77,ESE,103,0.0,0.0,66,0.00,,CLR,0.00,0.00,VWS V14.01,2013-05-05 09:56:00,
2013-05-05 06:00:00,52.8,41.0,29.77,ESE,103,0.0,0.0,64,0.00,,OVC041,0.00,0.00,VWS V14.01,2013-05-05 10:00:00,
2013-05-05 06:01:00,52.0,41.0,29.77,ESE,103,0.0,0.0,66,0.00,,CLR,0.00,0.00,VWS V14.01,2013-05-05 10:01:00,
2013-05-05 06:06:00,52.0,41.0,29.78,ESE,103,0.0,0.0,66,0.00,,CLR,0.00,0.00,VWS V14.01,2013-05-05 10:06:00,
2013-05-05 06:11:00,52.0,41.0,29.78,ESE,103,0.0,0.0,66,0.00,,CLR,0.00,0.00,VWS V14.01,2013-05-05 10:11:00,
2013-05-05 06:16:00,52.0,41.0,29.78,ESE,103,0.0,0.0,66,0.00,,CLR,0.00,0.00,VWS V14.01,2013-05-05 10:16:00,
2013-05-05 06:21:00,52.0,41.0,29.78,ESE,103,0.0,0.0,66,0.00,,CLR,0.00,0.00,VWS V14.01,2013-05-05 10:21:00,
2013-05-05 06:26:00,52.0,40.6,29.78,ESE,103,0.0,0.0,65,0.00,,CLR,0.00,0.00,VWS V14.01,2013-05-05 10:26:00,
2013-05-05 06:30:00,52.5,41.1,29.77,ESE,103,0.0,0.0,65,0.00,,OVC041,0.00,0.00,VWS V14.01,2013-05-05 10:30:00,
2013-05-05 06:31:00,52.0,41.0,29.78,ESE,103,0.0,0.0,66,0.00,,CLR,0.00,0.00,VWS V14.01,2013-05-05 10:31:00,
2013-05-05 06:36:00,51.9,40.9,29.78,ESE,103,0.0,0.0,66,0.00,,CLR,0.00,0.00,VWS V14.01,2013-05-05 10:36:00,
2013-05-05 06:41:00,51.9,40.9,29.78,ESE,103,0.0,0.0,66,0.00,,CLR,0.00,0.00,VWS V14.01,2013-05-05 10:41:00,
2013-05-05 06:46:00,51.7,40.7,29.78,NE,56,0.0,0.0,66,0.00,,CLR,0.00,5.00,VWS V14.01,2013-05-05 10:46:00,
2013-05-05 06:51:00,51.7,41.1,29.78,SW,234,0.0,0.0,67,0.00,,CLR,0.00,7.00,VWS V14.01,2013-05-05 10:51:00,
2013-05-05 06:56:00,51.7,41.1,29.79,SW,230,0.0,0.0,67,0.00,,CLR,0.00,11.00,VWS V14.01,2013-05-05 10:56:00,
2013-05-05 07:00:00,52.0,41.0,29.78,ESE,103,0.0,0.0,66,0.00,,OVC041,0.00,0.00,VWS V14.01,2013-05-05 11:00:00,
2013-05-05 07:01:00,51.9,41.3,29.79,SW,230,0.0,0.0,67,0.00,,CLR,0.00,12.00,VWS V14.01,2013-05-05 11:01:00,
2013-05-05 07:06:00,51.7,41.1,29.79,SW,230,0.0,0.0,67,0.00,,CLR,0.00,18.00,VWS V14.01,2013-05-05 11:06:00,
2013-05-05 07:11:00,51.9,41.3,29.79,SW,230,0.0,0.0,67,0.00,,CLR,0.00,21.00,VWS V14.01,2013-05-05 11:11:00,
2013-05-05 07:16:00,51.9,41.7,29.79,SSE,155,0.0,0.0,68,0.00,,CLR,0.00,25.00,VWS V14.01,2013-05-05 11:16:00,
2013-05-05 07:21:00,51.9,41.7,29.79,SSE,155,0.0,0.0,68,0.00,,CLR,0.00,30.00,VWS V14.01,2013-05-05 11:21:00,
2013-05-05 07:26:00,52.2,42.0,29.79,SSE,155,0.0,0.0,68,0.00,,CLR,0.00,42.00,VWS V14.01,2013-05-05 11:26:00,
2013-05-05 07:30:00,51.9,40.9,29.78,ESE,103,0.0,0.0,66,0.00,,OVC041,0.00,0.00,VWS V14.01,2013-05-05 11:30:00,
2013-05-05 07:31:00,52.3,42.1,29.79,SSE,155,0.0,0.0,68,0.00,,CLR,0.00,51.00,VWS V14.01,2013-05-05 11:31:00,
2013-05-05 07:36:00,52.8,42.2,29.79,ESE,119,0.0,0.0,67,0.00,,CLR,0.00,53.00,VWS V14.01,2013-05-05 11:36:00,
2013-05-05 07:41:00,53.2,42.2,29.79,ESE,119,0.0,0.0,66,0.00,,CLR,0.00,58.00,VWS V14.01,2013-05-05 11:41:00,
2013-05-05 07:46:00,53.2,42.2,29.79,SE,133,0.0,0.0,66,0.00,,CLR,0.00,69.00,VWS V14.01,2013-05-05 11:46:00,
2013-05-05 07:51:00,53.3,42.6,29.79,SE,133,0.0,0.0,67,0.00,,CLR,0.00,81.00,VWS V14.01,2013-05-05 11:51:00,
2013-05-05 07:56:00,53.5,42.4,29.80,ENE,63,0.0,0.0,66,0.00,,CLR,0.00,79.00,VWS V14.01,2013-05-05 11:56:00,
2013-05-05 08:00:00,51.7,41.1,29.79,SW,230,0.0,0.0,67,0.00,,OVC041,0.00,18.00,VWS V14.01,2013-05-05 12:00:00,
2013-05-05 08:01:00,53.8,42.7,29.80,East,99,0.0,0.0,66,0.00,,CLR,0.00,79.00,VWS V14.01,2013-05-05 12:01:00,
2013-05-05 08:06:00,54.1,43.0,29.80,East,99,0.0,0.0,66,0.00,,CLR,0.00,84.00,VWS V14.01,2013-05-05 12:06:00,
2013-05-05 08:11:00,54.4,43.3,29.80,SE,145,0.0,0.0,66,0.00,,CLR,0.00,114.00,VWS V14.01,2013-05-05 12:11:00,
2013-05-05 08:16:00,54.5,43.4,29.80,SE,146,0.0,0.0,66,0.00,,CLR,0.00,113.00,VWS V14.01,2013-05-05 12:16:00,
2013-05-05 08:20:00,54.8,43.7,29.80,SE,146,0.0,0.0,66,0.00,,CLR,0.00,156.00,VWS V14.01,2013-05-05 12:20:00,
2013-05-05 08:25:00,55.4,43.4,29.80,SE,134,0.0,0.0,64,0.00,,CLR,0.00,144.00,VWS V14.01,2013-05-05 12:25:00,
2013-05-05 08:30:00,55.9,43.9,29.80,SSE,153,3.0,0.0,64,0.00,,CLR,0.00,114.00,VWS V14.01,2013-05-05 12:30:00,
2013-05-05 08:35:00,56.3,43.9,29.80,SSE,155,0.0,0.0,63,0.00,,CLR,0.00,163.00,VWS V14.01,2013-05-05 12:35:00,
2013-05-05 08:40:00,56.6,43.8,29.80,SSE,155,0.0,0.0,62,0.00,,CLR,0.00,135.00,VWS V14.01,2013-05-05 12:40:00,
2013-05-05 08:45:00,56.9,44.0,29.80,ESE,122,2.0,0.0,62,0.00,,CLR,0.00,128.00,VWS V14.01,2013-05-05 12:45:00,
2013-05-05 08:50:00,57.2,43.9,29.80,SE,124,0.0,0.0,61,0.00,,CLR,0.00,113.00,VWS V14.01,2013-05-05 12:50:00,
2013-05-05 08:55:00,57.5,44.2,29.80,ESE,114,0.0,0.0,61,0.00,,CLR,0.00,149.00,VWS V14.01,2013-05-05 12:55:00,
2013-05-05 09:00:00,57.8,44.5,29.80,SE,131,0.0,0.0,61,0.00,,CLR,0.00,127.00,VWS V14.01,2013-05-05 13:00:00,
2013-05-05 09:05:00,58.0,44.6,29.80,SE,132,0.0,0.0,61,0.00,,CLR,0.00,193.00,VWS V14.01,2013-05-05 13:05:00,
2013-05-05 09:10:00,58.3,44.5,29.80,SE,131,0.0,0.0,60,0.00,,CLR,0.00,253.00,VWS V14.01,2013-05-05 13:10:00,
2013-05-05 09:15:00,58.6,44.3,29.80,SE,135,0.0,0.0,59,0.00,,CLR,0.00,350.00,VWS V14.01,2013-05-05 13:15:00,
2013-05-05 09:20:00,59.0,44.7,29.80,ESE,123,0.0,0.0,59,0.00,,CLR,0.00,380.00,VWS V14.01,2013-05-05 13:20:00,
2013-05-05 09:25:00,59.6,44.4,29.80,SE,146,3.0,0.0,57,0.00,,CLR,0.00,415.00,VWS V14.01,2013-05-05 13:25:00,
2013-05-05 09:30:00,60.1,44.4,29.80,SE,134,0.0,0.0,56,0.00,,CLR,0.00,422.00,VWS V14.01,2013-05-05 13:30:00,
2013-05-05 09:35:00,60.5,44.3,29.80,SE,142,0.0,0.0,55,0.00,,CLR,0.00,454.00,VWS V14.01,2013-05-05 13:35:00,
2013-05-05 09:40:00,61.2,45.4,29.81,SE,140,1.0,0.0,56,0.00,,CLR,0.00,434.00,VWS V14.01,2013-05-05 13:40:00,
2013-05-05 09:45:00,61.6,43.3,29.81,SE,146,2.0,0.0,51,0.00,,CLR,0.00,413.00,VWS V14.01,2013-05-05 13:45:00,
2013-05-05 09:50:00,62.0,44.7,29.81,SE,134,1.0,0.0,53,0.00,,CLR,0.00,550.00,VWS V14.01,2013-05-05 13:50:00,
2013-05-05 09:55:00,62.1,45.3,29.81,SSE,157,2.0,0.0,54,0.00,,CLR,0.00,577.00,VWS V14.01,2013-05-05 13:55:00,
2013-05-05 10:00:00,62.3,45.0,29.81,ESE,119,1.0,0.0,53,0.00,,CLR,0.00,480.00,VWS V14.01,2013-05-05 14:00:00,
2013-05-05 10:05:00,62.7,46.8,29.81,ESE,113,0.0,0.0,56,0.00,,CLR,0.00,468.00,VWS V14.01,2013-05-05 14:05:00,
2013-05-05 10:10:00,63.1,46.2,29.80,East,101,0.0,0.0,54,0.00,,CLR,0.00,482.00,VWS V14.01,2013-05-05 14:10:00,
2013-05-05 10:15:00,63.7,45.8,29.80,NE,49,0.0,0.0,52,0.00,,CLR,0.00,413.00,VWS V14.01,2013-05-05 14:15:00,
2013-05-05 10:20:00,63.5,45.1,29.80,SE,131,1.0,0.0,51,0.00,,CLR,0.00,510.00,VWS V14.01,2013-05-05 14:20:00,
2013-05-05 10:25:00,63.7,47.7,29.80,ESE,123,4.0,0.0,56,0.00,,CLR,0.00,519.00,VWS V14.01,2013-05-05 14:25:00,
2013-05-05 10:30:00,64.3,50.6,29.80,ENE,57,0.0,0.0,61,0.00,,CLR,0.00,640.00,VWS V14.01,2013-05-05 14:30:00,
2013-05-05 10:35:00,64.3,46.3,29.80,NNW,327,0.0,0.0,52,0.00,,CLR,0.00,517.00,VWS V14.01,2013-05-05 14:35:00,
2013-05-05 10:40:00,65.2,47.7,29.80,NE,55,0.0,0.0,53,0.00,,CLR,0.00,708.00,VWS V14.01,2013-05-05 14:40:00,
2013-05-05 10:45:00,65.8,47.2,29.80,SE,143,3.0,0.0,51,0.00,,CLR,0.00,631.00,VWS V14.01,2013-05-05 14:45:00,
2013-05-05 10:50:00,65.3,45.7,29.80,NE,55,2.0,0.0,49,0.00,,CLR,0.00,719.00,VWS V14.01,2013-05-05 14:50:00,
2013-05-05 10:55:00,66.4,47.2,29.80,SSE,163,2.0,0.0,50,0.00,,CLR,0.00,735.00,VWS V14.01,2013-05-05 14:55:00,
2013-05-05 11:00:00,66.3,48.2,29.80,SE,136,0.0,0.0,52,0.00,,CLR,0.00,729.00,VWS V14.01,2013-05-05 15:00:00,
2013-05-05 11:05:00,66.6,46.3,29.80,SE,140,0.0,0.0,48,0.00,,CLR,0.00,758.00,VWS V14.01,2013-05-05 15:05:00,
2013-05-05 11:10:00,66.9,48.7,29.80,SSE,150,2.0,0.0,52,0.00,,CLR,0.00,640.00,VWS V14.01,2013-05-05 15:10:00,
2013-05-05 11:15:00,66.9,46.0,29.80,SE,145,1.0,0.0,47,0.00,,CLR,0.00,643.00,VWS V14.01,2013-05-05 15:15:00,
2013-05-05 11:20:00,67.1,45.7,29.80,ESE,106,0.0,0.0,46,0.00,,CLR,0.00,772.00,VWS V14.01,2013-05-05 15:20:00,
2013-05-05 11:25:00,67.8,46.3,29.80,SE,145,0.0,0.0,46,0.00,,CLR,0.00,643.00,VWS V14.01,2013-05-05 15:25:00,
2013-05-05 11:30:00,67.8,47.4,29.80,NNW,330,0.0,0.0,48,0.00,,CLR,0.00,823.00,VWS V14.01,2013-05-05 15:30:00,
2013-05-05 11:35:00,68.6,46.4,29.80,SE,126,0.0,0.0,45,0.00,,CLR,0.00,796.00,VWS V14.01,2013-05-05 15:35:00,
2013-05-05 11:40:00,69.4,49.4,29.80,East,101,1.0,0.0,49,0.00,,CLR,0.00,868.00,VWS V14.01,2013-05-05 15:40:00,
2013-05-05 11:45:00,69.1,45.1,29.80,SSE,167,2.0,0.0,42,0.00,,CLR,0.00,844.00,VWS V14.01,2013-05-05 15:45:00,
2013-05-05 11:50:00,68.6,45.8,29.80,SE,146,5.0,0.0,44,0.00,,CLR,0.00,838.00,VWS V14.01,2013-05-05 15:50:00,
2013-05-05 11:55:00,69.4,45.3,29.80,NNE,20,4.0,0.0,42,0.00,,CLR,0.00,798.00,VWS V14.01,2013-05-05 15:55:00,
2013-05-05 12:00:00,69.1,45.1,29.80,SSE,153,1.0,0.0,42,0.00,,CLR,0.00,854.00,VWS V14.01,2013-05-05 16:00:00,
2013-05-05 12:05:00,69.3,47.1,29.80,SSE,166,0.0,0.0,45,0.00,,CLR,0.00,701.00,VWS V14.01,2013-05-05 16:05:00,
2013-05-05 12:10:00,69.4,45.3,29.80,ESE,121,0.0,0.0,42,0.00,,CLR,0.00,891.00,VWS V14.01,2013-05-05 16:10:00,
2013-05-05 12:15:00,69.6,45.5,29.80,SE,126,2.0,0.0,42,0.00,,CLR,0.00,889.00,VWS V14.01,2013-05-05 16:15:00,
2013-05-05 12:20:00,71.1,46.2,29.80,SSE,161,2.0,0.0,41,0.00,,CLR,0.00,891.00,VWS V14.01,2013-05-05 16:20:00,
2013-05-05 12:25:00,71.5,48.5,29.79,NE,56,0.0,0.0,44,0.00,,CLR,0.00,867.00,VWS V14.01,2013-05-05 16:25:00,
2013-05-05 12:30:00,70.6,43.8,29.79,SE,129,0.0,0.0,38,0.00,,CLR,0.00,816.00,VWS V14.01,2013-05-05 16:30:00,
2013-05-05 12:35:00,70.6,43.8,29.79,SE,138,4.0,0.0,38,0.00,,CLR,0.00,893.00,VWS V14.01,2013-05-05 16:35:00,
2013-05-05 12:40:00,70.8,45.3,29.79,SE,145,6.0,0.0,40,0.00,,CLR,0.00,882.00,VWS V14.01,2013-05-05 16:40:00,
2013-05-05 12:45:00,69.8,43.8,29.79,SE,146,4.0,0.0,39,0.00,,CLR,0.00,944.00,VWS V14.01,2013-05-05 16:45:00,
2013-05-05 12:50:00,71.3,45.1,29.79,ESE,119,4.0,0.0,39,0.00,,CLR,0.00,863.00,VWS V14.01,2013-05-05 16:50:00,
2013-05-05 12:55:00,71.1,46.9,29.78,ESE,122,1.0,0.0,42,0.00,,CLR,0.00,570.00,VWS V14.01,2013-05-05 16:55:00,
2013-05-05 13:00:00,70.4,44.3,29.78,ESE,122,1.0,0.0,39,0.00,,CLR,0.00,601.00,VWS V14.01,2013-05-05 17:00:00,
2013-05-05 13:05:00,69.8,43.8,29.78,ESE,122,1.0,0.0,39,0.00,,CLR,0.00,765.00,VWS V14.01,2013-05-05 17:05:00,
2013-05-05 13:10:00,70.6,47.7,29.78,SSE,161,3.0,0.0,44,0.00,,CLR,0.00,947.00,VWS V14.01,2013-05-05 17:10:00,
2013-05-05 13:15:00,69.8,45.1,29.78,SSE,152,4.0,0.0,41,0.00,,CLR,0.00,613.00,VWS V14.01,2013-05-05 17:15:00,
2013-05-05 13:20:00,69.3,44.6,29.78,South,177,0.0,0.0,41,0.00,,CLR,0.00,475.00,VWS V14.01,2013-05-05 17:20:00,
2013-05-05 13:25:00,69.3,44.0,29.78,ESE,109,0.0,0.0,40,0.00,,CLR,0.00,580.00,VWS V14.01,2013-05-05 17:25:00,
2013-05-05 13:30:00,70.4,45.0,29.78,ESE,119,4.0,0.0,40,0.00,,CLR,0.00,1074.00,VWS V14.01,2013-05-05 17:30:00,
2013-05-05 13:35:00,70.6,46.4,29.78,SSE,151,3.0,0.0,42,0.00,,CLR,0.00,563.00,VWS V14.01,2013-05-05 17:35:00,
2013-05-05 13:40:00,70.1,44.0,29.78,ESE,121,2.0,0.0,39,0.00,,CLR,0.00,524.00,VWS V14.01,2013-05-05 17:40:00,
2013-05-05 13:45:00,69.8,44.4,29.78,ENE,62,0.0,0.0,40,0.00,,CLR,0.00,415.00,VWS V14.01,2013-05-05 17:45:00,
2013-05-05 13:50:00,69.9,45.8,29.78,ENE,69,0.0,0.0,42,0.00,,CLR,0.00,629.00,VWS V14.01,2013-05-05 17:50:00,
2013-05-05 13:55:00,69.8,45.7,29.77,SSE,148,2.0,0.0,42,0.00,,CLR,0.00,448.00,VWS V14.01,2013-05-05 17:55:00,
2013-05-05 14:00:00,69.8,44.4,29.77,East,93,1.0,0.0,40,0.00,,CLR,0.00,898.00,VWS V14.01,2013-05-05 18:00:00,
2013-05-05 14:05:00,70.9,44.7,29.77,ESE,115,3.0,0.0,39,0.00,,CLR,0.00,1044.00,VWS V14.01,2013-05-05 18:05:00,
2013-05-05 14:10:00,71.3,44.4,29.77,SE,140,3.0,0.0,38,0.00,,CLR,0.00,896.00,VWS V14.01,2013-05-05 18:10:00,
2013-05-05 14:15:00,72.3,47.3,29.77,SE,135,2.0,0.0,41,0.00,,CLR,0.00,782.00,VWS V14.01,2013-05-05 18:15:00,
2013-05-05 14:20:00,71.6,43.3,29.77,SE,138,2.0,0.0,36,0.00,,CLR,0.00,1004.00,VWS V14.01,2013-05-05 18:20:00,
2013-05-05 14:25:00,72.7,47.0,29.76,SE,130,2.0,0.0,40,0.00,,CLR,0.00,895.00,VWS V14.01,2013-05-05 18:25:00,
2013-05-05 14:30:00,73.2,43.9,29.76,East,99,0.0,0.0,35,0.00,,CLR,0.00,904.00,VWS V14.01,2013-05-05 18:30:00,
2013-05-05 14:35:00,72.0,42.9,29.76,ESE,123,4.0,0.0,35,0.00,,CLR,0.00,536.00,VWS V14.01,2013-05-05 18:35:00,
2013-05-05 14:40:00,70.9,44.7,29.77,NNW,347,0.0,0.0,39,0.00,,CLR,0.00,439.00,VWS V14.01,2013-05-05 18:40:00,
2013-05-05 14:45:00,70.6,43.1,29.77,ESE,117,1.0,0.0,37,0.00,,CLR,0.00,329.00,VWS V14.01,2013-05-05 18:45:00,
2013-05-05 14:50:00,69.6,42.9,29.77,South,171,2.0,0.0,38,0.00,,CLR,0.00,455.00,VWS V14.01,2013-05-05 18:50:00,
2013-05-05 14:55:00,70.1,44.0,29.77,ESE,121,4.0,0.0,39,0.00,,CLR,0.00,751.00,VWS V14.01,2013-05-05 18:55:00,
2013-05-05 15:00:00,72.0,44.3,29.77,ESE,113,3.0,0.0,37,0.00,,CLR,0.00,882.00,VWS V14.01,2013-05-05 19:00:00,
2013-05-05 15:05:00,72.0,42.9,29.77,SSE,150,2.0,0.0,35,0.00,,CLR,0.00,918.00,VWS V14.01,2013-05-05 19:05:00,
2013-05-05 15:10:00,72.5,44.8,29.76,South,170,1.0,0.0,37,0.00,,CLR,0.00,645.00,VWS V14.01,2013-05-05 19:10:00,
2013-05-05 15:15:00,72.5,46.2,29.76,SE,145,2.0,0.0,39,0.00,,CLR,0.00,506.00,VWS V14.01,2013-05-05 19:15:00,
2013-05-05 15:20:00,72.0,45.0,29.76,SE,133,0.0,0.0,38,0.00,,CLR,0.00,731.00,VWS V14.01,2013-05-05 19:20:00,
2013-05-05 15:25:00,72.3,43.1,29.76,SSE,155,2.0,0.0,35,0.00,,CLR,0.00,621.00,VWS V14.01,2013-05-05 19:25:00,
2013-05-05 15:30:00,72.3,43.9,29.76,SE,134,2.0,0.0,36,0.00,,CLR,0.00,621.00,VWS V14.01,2013-05-05 19:30:00,
2013-05-05 15:35:00,72.1,44.4,29.76,SE,139,0.0,0.0,37,0.00,,CLR,0.00,531.00,VWS V14.01,2013-05-05 19:35:00,
2013-05-05 15:40:00,72.5,45.5,29.76,ESE,117,1.0,0.0,38,0.00,,CLR,0.00,564.00,VWS V14.01,2013-05-05 19:40:00,
2013-05-05 15:45:00,72.3,40.8,29.76,ESE,117,1.0,0.0,32,0.00,,CLR,0.00,705.00,VWS V14.01,2013-05-05 19:45:00,
2013-05-05 15:50:00,72.3,45.3,29.76,ESE,117,0.0,0.0,38,0.00,,CLR,0.00,580.00,VWS V14.01,2013-05-05 19:50:00,
2013-05-05 15:55:00,72.5,43.3,29.75,SE,142,2.0,0.0,35,0.00,,CLR,0.00,487.00,VWS V14.01,2013-05-05 19:55:00,
2013-05-05 16:00:00,71.8,43.4,29.75,SSE,163,4.0,0.0,36,0.00,,CLR,0.00,496.00,VWS V14.01,2013-05-05 20:00:00,
2013-05-05 16:05:00,71.3,43.7,29.75,SE,134,0.0,0.0,37,0.00,,CLR,0.00,520.00,VWS V14.01,2013-05-05 20:05:00,
2013-05-05 16:10:00,72.0,46.4,29.75,East,98,0.0,0.0,40,0.00,,CLR,0.00,390.00,VWS V14.01,2013-05-05 20:10:00,
2013-05-05 16:15:00,71.3,42.3,29.75,ENE,78,2.0,0.0,35,0.00,,CLR,0.00,330.00,VWS V14.01,2013-05-05 20:15:00,
2013-05-05 16:20:00,70.9,39.6,29.75,SSE,155,4.0,0.0,32,0.00,,CLR,0.00,327.00,VWS V14.01,2013-05-05 20:20:00,
2013-05-05 16:25:00,70.4,40.7,29.75,SSE,162,1.0,0.0,34,0.00,,CLR,0.00,334.00,VWS V14.01,2013-05-05 20:25:00,
2013-05-05 16:30:00,70.6,41.7,29.75,SE,126,2.0,0.0,35,0.00,,CLR,0.00,350.00,VWS V14.01,2013-05-05 20:30:00,
2013-05-05 16:35:00,70.6,40.1,29.75,SE,146,2.0,0.0,33,0.00,,CLR,0.00,332.00,VWS V14.01,2013-05-05 20:35:00,
2013-05-05 16:40:00,70.6,42.4,29.75,ESE,108,0.0,0.0,36,0.00,,CLR,0.00,371.00,VWS V14.01,2013-05-05 20:40:00,
2013-05-05 16:45:00,70.6,43.8,29.75,ESE,106,1.0,0.0,38,0.00,,CLR,0.00,287.00,VWS V14.01,2013-05-05 20:45:00,
2013-05-05 16:50:00,70.6,43.1,29.75,SE,132,1.0,0.0,37,0.00,,CLR,0.00,274.00,VWS V14.01,2013-05-05 20:50:00,
2013-05-05 16:55:00,70.4,42.2,29.75,SE,136,0.0,0.0,36,0.00,,CLR,0.00,308.00,VWS V14.01,2013-05-05 20:55:00,
2013-05-05 17:00:00,70.6,42.4,29.75,East,101,0.0,0.0,36,0.00,,CLR,0.00,313.00,VWS V14.01,2013-05-05 21:00:00,
2013-05-05 17:05:00,70.8,44.6,29.75,SSE,152,2.0,0.0,39,0.00,,CLR,0.00,334.00,VWS V14.01,2013-05-05 21:05:00,
2013-05-05 17:10:00,70.9,41.9,29.75,SE,126,3.0,0.0,35,0.00,,CLR,0.00,318.00,VWS V14.01,2013-05-05 21:10:00,
2013-05-05 17:14:00,70.9,43.4,29.75,SE,128,2.0,0.0,37,0.00,,CLR,0.00,294.00,VWS V14.01,2013-05-05 21:14:00,
2013-05-05 17:19:00,70.9,42.6,29.75,SE,132,0.0,0.0,36,0.00,,CLR,0.00,285.00,VWS V14.01,2013-05-05 21:19:00,
2013-05-05 17:24:00,70.9,45.4,29.75,ESE,121,0.0,0.0,40,0.00,,CLR,0.00,244.00,VWS V14.01,2013-05-05 21:24:00,
2013-05-05 17:29:00,70.8,43.3,29.75,SE,138,1.0,0.0,37,0.00,,CLR,0.00,220.00,VWS V14.01,2013-05-05 21:29:00,
2013-05-05 17:30:00,70.6,43.8,29.75,ESE,117,1.0,0.0,38,0.00,,OVC041,0.00,352.00,VWS V14.01,2013-05-05 21:30:00,
2013-05-05 17:34:00,70.8,42.5,29.75,SE,133,2.0,0.0,36,0.00,,CLR,0.00,211.00,VWS V14.01,2013-05-05 21:34:00,
2013-05-05 17:39:00,70.6,43.1,29.75,SE,134,1.0,0.0,37,0.00,,CLR,0.00,202.00,VWS V14.01,2013-05-05 21:39:00,
2013-05-05 17:44:00,70.3,43.5,29.75,SE,127,0.0,0.0,38,0.00,,CLR,0.00,202.00,VWS V14.01,2013-05-05 21:44:00,
2013-05-05 17:49:00,69.9,44.5,29.75,SE,141,3.0,0.0,40,0.00,,CLR,0.00,206.00,VWS V14.01,2013-05-05 21:49:00,
2013-05-05 17:54:00,69.8,43.1,29.75,SSE,156,1.0,0.0,38,0.00,,CLR,0.00,209.00,VWS V14.01,2013-05-05 21:54:00,
2013-05-05 17:59:00,69.8,43.8,29.75,SE,128,1.0,0.0,39,0.00,,CLR,0.00,204.00,VWS V14.01,2013-05-05 21:59:00,
2013-05-05 18:00:00,70.9,42.6,29.75,SE,142,0.0,0.0,36,0.00,,OVC041,0.00,334.00,VWS V14.01,2013-05-05 22:00:00,
2013-05-05 18:04:00,69.8,44.4,29.75,SSE,159,0.0,0.0,40,0.00,,CLR,0.00,179.00,VWS V14.01,2013-05-05 22:04:00,
2013-05-05 18:09:00,69.6,44.2,29.75,SSE,154,3.0,0.0,40,0.00,,CLR,0.00,158.00,VWS V14.01,2013-05-05 22:09:00,
2013-05-05 18:14:00,69.4,43.4,29.75,SE,136,0.0,0.0,39,0.00,,CLR,0.00,146.00,VWS V14.01,2013-05-05 22:14:00,
2013-05-05 18:19:00,69.3,44.0,29.75,SE,126,1.0,0.0,40,0.00,,CLR,0.00,144.00,VWS V14.01,2013-05-05 22:19:00,
2013-05-05 18:24:00,69.1,44.4,29.75,SSE,149,2.0,0.0,41,0.00,,CLR,0.00,156.00,VWS V14.01,2013-05-05 22:24:00,
2013-05-05 18:29:00,69.1,44.4,29.75,SSE,153,0.0,0.0,41,0.00,,CLR,0.00,146.00,VWS V14.01,2013-05-05 22:29:00,
2013-05-05 18:30:00,70.8,44.0,29.75,SE,140,0.0,0.0,38,0.00,,OVC041,0.00,206.00,VWS V14.01,2013-05-05 22:30:00,
2013-05-05 18:34:00,69.1,44.4,29.75,SE,138,2.0,0.0,41,0.00,,CLR,0.00,148.00,VWS V14.01,2013-05-05 22:34:00,
2013-05-05 18:39:00,69.4,44.1,29.75,ESE,113,0.0,0.0,40,0.00,,CLR,0.00,142.00,VWS V14.01,2013-05-05 22:39:00,
2013-05-05 18:44:00,69.4,44.7,29.75,SE,126,0.0,0.0,41,0.00,,CLR,0.00,104.00,VWS V14.01,2013-05-05 22:44:00,
2013-05-05 18:49:00,69.1,45.1,29.75,SE,124,0.0,0.0,42,0.00,,CLR,0.00,102.00,VWS V14.01,2013-05-05 22:49:00,
2013-05-05 18:54:00,68.9,44.9,29.75,SSE,159,0.0,0.0,42,0.00,,CLR,0.00,114.00,VWS V14.01,2013-05-05 22:54:00,
2013-05-05 18:59:00,68.8,44.8,29.75,SE,130,0.0,0.0,42,0.00,,CLR,0.00,95.00,VWS V14.01,2013-05-05 22:59:00,
2013-05-05 19:00:00,69.8,45.1,29.75,SSE,159,0.0,0.0,41,0.00,,OVC041,0.00,171.00,VWS V14.01,2013-05-05 23:00:00,
2013-05-05 19:04:00,68.6,44.6,29.75,SE,132,0.0,0.0,42,0.00,,CLR,0.00,90.00,VWS V14.01,2013-05-05 23:04:00,
2013-05-05 19:09:00,68.4,46.2,29.76,SE,132,0.0,0.0,45,0.00,,CLR,0.00,88.00,VWS V14.01,2013-05-05 23:09:00,
2013-05-05 19:14:00,68.3,44.3,29.76,SE,132,0.0,0.0,42,0.00,,CLR,0.00,90.00,VWS V14.01,2013-05-05 23:14:00,
2013-05-05 19:19:00,68.3,46.7,29.76,SE,136,0.0,0.0,46,0.00,,CLR,0.00,90.00,VWS V14.01,2013-05-05 23:19:00,
2013-05-05 19:24:00,68.1,45.4,29.76,SE,136,0.0,0.0,44,0.00,,CLR,0.00,86.00,VWS V14.01,2013-05-05 23:24:00,
2013-05-05 19:29:00,68.1,44.8,29.76,SE,135,0.0,0.0,43,0.00,,CLR,0.00,86.00,VWS V14.01,2013-05-05 23:29:00,
2013-05-05 19:30:00,69.3,44.6,29.75,SE,137,0.0,0.0,41,0.00,,OVC041,0.00,151.00,VWS V14.01,2013-05-05 23:30:00,
2013-05-05 19:34:00,68.3,46.2,29.76,SE,135,0.0,0.0,45,0.00,,CLR,0.00,74.00,VWS V14.01,2013-05-05 23:34:00,
2013-05-05 19:39:00,67.9,46.4,29.76,SE,135,0.0,0.0,46,0.00,,CLR,0.00,62.00,VWS V14.01,2013-05-05 23:39:00,
2013-05-05 19:44:00,67.6,46.1,29.76,ESE,102,0.0,0.0,46,0.00,,CLR,0.00,54.00,VWS V14.01,2013-05-05 23:44:00,
2013-05-05 19:49:00,67.6,47.2,29.76,ESE,102,0.0,0.0,48,0.00,,CLR,0.00,44.00,VWS V14.01,2013-05-05 23:49:00,
2013-05-05 19:54:00,67.1,47.3,29.76,ESE,102,0.0,0.0,49,0.00,,CLR,0.00,37.00,VWS V14.01,2013-05-05 23:54:00,
2013-05-05 19:59:00,66.8,46.5,29.76,ESE,102,0.0,0.0,48,0.00,,CLR,0.00,32.00,VWS V14.01,2013-05-05 23:59:00,
2013-05-05 20:00:00,68.4,44.4,29.76,SE,132,0.0,0.0,42,0.00,,OVC041,0.00,90.00,VWS V14.01,2013-05-06 00:00:00,
2013-05-05 20:04:00,66.4,46.1,29.76,ESE,102,0.0,0.0,48,0.00,,CLR,0.00,28.00,VWS V14.01,2013-05-06 00:04:00,
2013-05-05 20:09:00,66.0,46.3,29.76,ESE,102,0.0,0.0,49,0.00,,CLR,0.00,26.00,VWS V14.01,2013-05-06 00:09:00,
2013-05-05 20:14:00,65.5,46.9,29.76,ESE,102,0.0,0.0,51,0.00,,FEW085,0.00,23.00,VWS V14.01,2013-05-06 00:14:00,
2013-05-05 20:19:00,65.3,46.2,29.76,ESE,102,0.0,0.0,50,0.00,,FEW085,0.00,19.00,VWS V14.01,2013-05-06 00:19:00,
2013-05-05 20:24:00,65.2,48.2,29.76,ESE,102,0.0,0.0,54,0.00,,FEW085,0.00,18.00,VWS V14.01,2013-05-06 00:24:00,
2013-05-05 20:29:00,64.5,46.0,29.76,ESE,102,0.0,0.0,51,0.00,,FEW085,0.00,12.00,VWS V14.01,2013-05-06 00:29:00,
2013-05-05 20:30:00,68.1,46.6,29.76,SE,135,0.0,0.0,46,0.00,,OVC041,0.00,67.00,VWS V14.01,2013-05-06 00:30:00,
2013-05-05 20:34:00,64.2,46.7,29.76,ESE,102,0.0,0.0,53,0.00,,FEW085,0.00,7.00,VWS V14.01,2013-05-06 00:34:00,
2013-05-05 20:39:00,64.0,48.0,29.77,ESE,102,0.0,0.0,56,0.00,,FEW085,0.00,0.00,VWS V14.01,2013-05-06 00:39:00,
2013-05-05 20:44:00,63.5,46.6,29.77,ESE,102,0.0,0.0,54,0.00,,FEW085,0.00,0.00,VWS V14.01,2013-05-06 00:44:00,
2013-05-05 20:49:00,63.5,45.6,29.77,ESE,102,0.0,0.0,52,0.00,,FEW085,0.00,0.00,VWS V14.01,2013-05-06 00:49:00,
2013-05-05 20:54:00,63.7,44.7,29.77,ESE,102,0.0,0.0,50,0.00,,FEW085,0.00,0.00,VWS V14.01,2013-05-06 00:54:00,
2013-05-05 20:59:00,63.9,44.9,29.77,ESE,102,0.0,0.0,50,0.00,,FEW085,0.00,0.00,VWS V14.01,2013-05-06 00:59:00,
2013-05-05 21:00:00,66.3,46.6,29.76,ESE,102,0.0,0.0,49,0.00,,OVC041,0.00,26.00,VWS V14.01,2013-05-06 01:00:00,
2013-05-05 21:04:00,64.0,43.9,29.77,ESE,102,0.0,0.0,48,0.00,,FEW085,0.00,0.00,VWS V14.01,2013-05-06 01:04:00,
2013-05-05 21:09:00,64.0,43.4,29.77,ESE,102,0.0,0.0,47,0.00,,FEW085,0.00,0.00,VWS V14.01,2013-05-06 01:09:00,
2013-05-05 21:14:00,63.9,43.3,29.77,ESE,102,0.0,0.0,47,0.00,,SCT100,0.00,0.00,VWS V14.01,2013-05-06 01:14:00,
2013-05-05 21:19:00,63.9,43.3,29.77,ESE,102,0.0,0.0,47,0.00,,SCT100,0.00,0.00,VWS V14.01,2013-05-06 01:19:00,
2013-05-05 21:24:00,63.9,43.3,29.77,ESE,102,0.0,0.0,47,0.00,,SCT100,0.00,0.00,VWS V14.01,2013-05-06 01:24:00,
2013-05-05 21:29:00,63.9,43.3,29.77,ESE,102,0.0,0.0,47,0.00,,SCT100,0.00,0.00,VWS V14.01,2013-05-06 01:29:00,
2013-05-05 21:30:00,64.0,46.0,29.77,ESE,102,0.0,0.0,52,0.00,,OVC041,0.00,7.00,VWS V14.01,2013-05-06 01:30:00,
2013-05-05 21:34:00,63.9,43.8,29.77,ESE,102,0.0,0.0,48,0.00,,SCT100,0.00,0.00,VWS V14.01,2013-05-06 01:34:00,
2013-05-05 21:39:00,63.9,42.2,29.78,ESE,102,0.0,0.0,45,0.00,,SCT100,0.00,0.00,VWS V14.01,2013-05-06 01:39:00,
2013-05-05 21:44:00,63.7,42.5,29.78,ESE,102,0.0,0.0,46,0.00,,SCT100,0.00,0.00,VWS V14.01,2013-05-06 01:44:00,
2013-05-05 21:49:00,63.7,43.7,29.78,ESE,102,0.0,0.0,48,0.00,,SCT100,0.00,0.00,VWS V14.01,2013-05-06 01:49:00,
2013-05-05 21:54:00,63.4,42.3,29.78,ESE,102,0.0,0.0,46,0.00,,SCT100,0.00,0.00,VWS V14.01,2013-05-06 01:54:00,
2013-05-05 21:59:00,63.2,42.1,29.78,ESE,102,0.0,0.0,46,0.00,,SCT100,0.00,0.00,VWS V14.01,2013-05-06 01:59:00,
2013-05-05 22:00:00,64.0,43.9,29.77,ESE,102,0.0,0.0,48,0.00,,OVC041,0.00,0.00,VWS V14.01,2013-05-06 02:00:00,
2013-05-05 22:04:00,63.2,42.1,29.78,ESE,102,0.0,0.0,46,0.00,,SCT100,0.00,0.00,VWS V14.01,2013-05-06 02:04:00,
2013-05-05 22:09:00,63.2,41.5,29.78,ESE,102,0.0,0.0,45,0.00,,SCT100,0.00,0.00,VWS V14.01,2013-05-06 02:09:00,
2013-05-05 22:14:00,63.1,42.0,29.78,ESE,102,0.0,0.0,46,0.00,,SCT100,0.00,0.00,VWS V14.01,2013-05-06 02:14:00,
2013-05-05 22:19:00,62.9,41.8,29.78,ESE,102,0.0,0.0,46,0.00,,SCT100,0.00,0.00,VWS V14.01,2013-05-06 02:19:00,
2013-05-05 22:24:00,62.7,41.6,29.78,ESE,102,0.0,0.0,46,0.00,,SCT100,0.00,0.00,VWS V14.01,2013-05-06 02:24:00,
2013-05-05 22:29:00,62.6,42.1,29.78,ESE,102,0.0,0.0,47,0.00,,OVC110,0.00,0.00,VWS V14.01,2013-05-06 02:29:00,
2013-05-05 22:30:00,63.9,42.2,29.78,ESE,102,0.0,0.0,45,0.00,,OVC041,0.00,0.00,VWS V14.01,2013-05-06 02:30:00,
2013-05-05 22:34:00,62.6,42.7,29.78,ESE,102,0.0,0.0,48,0.00,,OVC110,0.00,0.00,VWS V14.01,2013-05-06 02:34:00,
2013-05-05 22:39:00,62.6,42.1,29.79,ESE,102,0.0,0.0,47,0.00,,OVC110,0.00,0.00,VWS V14.01,2013-05-06 02:39:00,
2013-05-05 22:44:00,62.4,42.5,29.79,ESE,102,0.0,0.0,48,0.00,,OVC110,0.00,0.00,VWS V14.01,2013-05-06 02:44:00,
2013-05-05 22:49:00,62.4,42.5,29.79,ESE,102,0.0,0.0,48,0.00,,OVC110,0.00,0.00,VWS V14.01,2013-05-06 02:49:00,
2013-05-05 22:54:00,62.1,42.2,29.79,ESE,102,0.0,0.0,48,0.00,,OVC110,0.00,0.00,VWS V14.01,2013-05-06 02:54:00,
2013-05-05 22:59:00,62.1,42.7,29.79,ESE,102,0.0,0.0,49,0.00,,OVC110,0.00,0.00,VWS V14.01,2013-05-06 02:59:00,
2013-05-05 23:00:00,63.2,42.1,29.78,ESE,102,0.0,0.0,46,0.00,,OVC041,0.00,0.00,VWS V14.01,2013-05-06 03:00:00,
2013-05-05 23:04:00,62.1,41.7,29.79,ESE,102,0.0,0.0,47,0.00,,OVC110,0.00,0.00,VWS V14.01,2013-05-06 03:04:00,
2013-05-05 23:09:00,62.1,43.3,29.79,ESE,102,0.0,0.0,50,0.00,,OVC110,0.00,0.00,VWS V14.01,2013-05-06 03:09:00,
2013-05-05 23:14:00,61.6,42.8,29.79,ESE,102,0.0,0.0,50,0.00,,OVC110,0.00,0.00,VWS V14.01,2013-05-06 03:14:00,
2013-05-05 23:19:00,61.6,42.8,29.79,ESE,102,0.0,0.0,50,0.00,,OVC110,0.00,0.00,VWS V14.01,2013-05-06 03:19:00,
2013-05-05 23:24:00,61.3,42.0,29.78,ESE,102,0.0,0.0,49,0.00,,OVC110,0.00,0.00,VWS V14.01,2013-05-06 03:24:00,
2013-05-05 23:29:00,61.5,43.2,29.78,ESE,102,0.0,0.0,51,0.00,,OVC110,0.00,0.00,VWS V14.01,2013-05-06 03:29:00,
2013-05-05 23:30:00,62.6,41.5,29.79,ESE,102,0.0,0.0,46,0.00,,OVC041,0.00,0.00,VWS V14.01,2013-05-06 03:30:00,
2013-05-05 23:34:00,61.3,42.0,29.78,ESE,102,0.0,0.0,49,0.00,,OVC110,0.00,0.00,VWS V14.01,2013-05-06 03:34:00,
2013-05-05 23:39:00,61.5,40.5,29.78,ESE,102,0.0,0.0,46,0.00,,OVC100,0.00,0.00,VWS V14.01,2013-05-06 03:39:00,
2013-05-05 23:44:00,61.5,41.1,29.78,ESE,102,0.0,0.0,47,0.00,,OVC100,0.00,0.00,VWS V14.01,2013-05-06 03:44:00,
2013-05-05 23:49:00,61.2,45.4,29.78,ESE,102,0.0,0.0,56,0.00,,OVC100,0.00,0.00,VWS V14.01,2013-05-06 03:49:00,
2013-05-05 23:54:00,60.7,43.0,29.78,ESE,102,0.0,0.0,52,0.00,,OVC100,0.00,0.00,VWS V14.01,2013-05-06 03:54:00,
2013-05-05 23:59:00,60.7,40.9,29.78,ESE,102,0.0,0.0,48,0.00,,OVC100,0.00,0.00,VWS V14.01,2013-05-06 03:59:00,